Year,Month,Day,Hour,Minute,Value (Times are PST for temperature in C)
2016,05,29,00,00,10.90
2016,05,29,00,01,10.90
2016,05,29,00,02,10.90
2016,05,29,00,03,10.90
2016,05,29,00,04,10.90
2016,05,29,00,05,10.90
2016,05,29,00,06,10.90
2016,05,29,00,07,10.90
2016,05,29,00,08,10.90
2016,05,29,00,09,10.90
2016,05,29,00,10,10.90
2016,05,29,00,11,10.90
2016,05,29,00,12,10.90
2016,05,29,00,13,10.90
2016,05,29,00,14,10.90
2016,05,29,00,15,10.90
2016,05,29,00,16,10.90
2016,05,29,00,17,10.90
2016,05,29,00,18,10.90
2016,05,29,00,19,10.90
2016,05,29,00,20,10.90
2016,05,29,00,21,10.90
2016,05,29,00,22,10.90
2016,05,29,00,23,10.90
2016,05,29,00,24,10.90
2016,05,29,00,25,10.90
2016,05,29,00,26,10.90
2016,05,29,00,27,10.90
2016,05,29,00,28,10.90
2016,05,29,00,29,10.90
2016,05,29,00,30,10.90
2016,05,29,10,42,13.90
2016,05,29,10,43,14.00
2016,05,29,10,44,14.00
2016,05,29,10,45,14.10
2016,05,29,10,46,14.20
2016,05,29,10,47,14.20
2016,05,29,10,48,14.20
2016,05,29,10,49,14.30
2016,05,29,10,50,14.30
2016,05,29,10,51,14.30
2016,05,29,10,52,14.30
2016,05,29,10,53,14.20
2016,05,29,10,54,14.20
2016,05,29,10,55,14.20
2016,05,29,10,56,14.20
2016,05,29,10,57,14.20
2016,05,29,10,58,14.30
2016,05,29,10,59,14.30
2016,05,29,11,00,14.30
2016,05,29,11,01,14.40
2016,05,29,11,02,14.60
2016,05,29,11,03,14.60
2016,05,29,11,04,14.70
2016,05,29,11,05,14.70
2016,05,29,11,06,14.60
2016,05,29,11,07,14.60
2016,05,29,11,08,14.60
2016,05,29,11,09,14.60
2016,05,29,11,10,14.60
2016,05,29,11,11,14.50
2016,05,29,11,12,14.30
2016,05,29,11,13,14.30
2016,05,29,11,14,14.40
2016,05,29,11,15,14.40
2016,05,29,11,16,14.40
2016,05,29,11,17,14.40
2016,05,29,11,18,14.30
2016,05,29,11,19,14.20
2016,05,29,11,20,14.20
2016,05,29,11,21,14.30
2016,05,29,11,22,14.50
2016,05,29,11,23,14.60
2016,05,29,11,24,14.80
2016,05,29,11,25,15.00
2016,05,29,11,26,15.00
2016,05,29,11,27,15.10
2016,05,29,11,28,15.10
2016,05,29,11,29,15.20
2016,05,29,11,30,15.20
2016,05,29,11,31,15.30
2016,05,29,11,32,15.30
2016,05,29,11,33,15.40
2016,05,29,11,34,15.40
2016,05,29,11,35,15.30
2016,05,29,11,36,15.30
2016,05,29,11,37,15.40
2016,05,29,11,38,15.50
2016,05,29,11,39,15.50
2016,05,29,11,40,15.60
2016,05,29,11,41,15.70
2016,05,29,11,42,15.70
2016,05,29,11,43,15.80
2016,05,29,11,44,15.80
2016,05,29,11,45,15.90
2016,05,29,11,46,15.80
2016,05,29,11,47,15.80
2016,05,29,11,48,15.80
2016,05,29,11,49,15.90
2016,05,29,11,50,16.00
2016,05,29,11,51,16.10
2016,05,29,11,52,16.10
2016,05,29,11,53,16.10
2016,05,29,11,54,16.10
2016,05,29,11,55,15.90
2016,05,29,11,56,15.80
2016,05,29,11,57,15.70
2016,05,29,11,58,15.60
2016,05,29,11,59,15.50
2016,05,29,12,00,15.60
2016,05,29,12,01,15.60
2016,05,29,12,02,15.70
2016,05,29,12,03,15.80
2016,05,29,12,04,15.80
2016,05,29,12,05,15.90
2016,05,29,12,06,16.00
2016,05,29,12,07,16.10
2016,05,29,12,08,16.20
2016,05,29,12,09,16.20
2016,05,29,12,10,16.20
2016,05,29,12,11,16.20
2016,05,29,12,12,16.30
2016,05,29,12,13,16.30
2016,05,29,12,14,16.20
2016,05,29,12,15,16.10
2016,05,29,12,16,16.10
2016,05,29,12,17,16.10
2016,05,29,12,18,16.10
2016,05,29,12,19,16.10
2016,05,29,12,20,16.10
2016,05,29,12,21,16.20
2016,05,29,12,22,16.40
2016,05,29,12,23,16.40
2016,05,29,12,24,16.30
2016,05,29,12,25,16.30
2016,05,29,12,26,16.30
2016,05,29,12,27,16.40
2016,05,29,12,28,16.40
2016,05,29,12,29,16.40
2016,05,29,12,30,16.30
2016,05,29,12,31,16.20
2016,05,29,12,32,16.20
2016,05,29,12,33,16.20
2016,05,29,12,34,16.20
2016,05,29,12,35,16.20
2016,05,29,12,36,16.30
2016,05,29,12,37,16.30
2016,05,29,12,38,16.20
2016,05,29,12,39,16.30
2016,05,29,12,40,16.20
2016,05,29,12,41,16.20
2016,05,29,12,42,16.30
2016,05,29,12,43,16.20
2016,05,29,12,44,16.20
2016,05,29,12,45,16.20
2016,05,29,12,46,16.20
2016,05,29,12,47,16.30
2016,05,29,12,48,16.30
2016,05,29,12,49,16.30
2016,05,29,12,50,16.30
2016,05,29,12,51,16.30
2016,05,29,12,52,16.40
2016,05,29,12,53,16.40
2016,05,29,12,54,16.40
2016,05,29,12,55,16.30
2016,05,29,12,56,16.20
2016,05,29,12,57,16.20
2016,05,29,12,58,16.10
2016,05,29,12,59,16.10
2016,05,29,13,00,16.10
2016,05,29,13,01,16.20
2016,05,29,13,02,16.20
2016,05,29,13,03,16.20
2016,05,29,13,04,16.10
2016,05,29,13,05,16.10
2016,05,29,13,06,16.10
2016,05,29,13,07,16.10
2016,05,29,13,08,16.10
2016,05,29,13,09,16.10
2016,05,29,13,10,16.10
2016,05,29,13,11,16.10
2016,05,29,13,12,16.20
2016,05,29,13,13,16.30
2016,05,29,13,14,16.40
2016,05,29,13,15,16.40
2016,05,29,13,16,16.40
2016,05,29,13,17,16.40
2016,05,29,13,18,16.50
2016,05,29,13,19,16.60
2016,05,29,13,20,16.70
2016,05,29,13,21,16.70
2016,05,29,13,22,16.50
2016,05,29,13,23,16.40
2016,05,29,13,24,16.40
2016,05,29,13,25,16.40
2016,05,29,13,26,16.50
2016,05,29,13,27,16.60
2016,05,29,13,28,16.70
2016,05,29,13,29,16.70
2016,05,29,13,30,16.80
2016,05,29,13,31,16.90
2016,05,29,13,32,16.90
2016,05,29,13,33,17.00
2016,05,29,13,34,17.00
2016,05,29,13,35,17.00
2016,05,29,13,36,17.00
2016,05,29,13,37,17.00
2016,05,29,13,38,17.10
2016,05,29,13,39,17.10
2016,05,29,13,40,17.10
2016,05,29,13,41,17.00
2016,05,29,13,42,16.90
2016,05,29,13,43,16.80
2016,05,29,13,44,16.80
2016,05,29,13,45,16.80
2016,05,29,13,46,16.70
2016,05,29,13,47,16.70
2016,05,29,13,48,16.60
2016,05,29,13,49,16.60
2016,05,29,13,50,16.60
2016,05,29,13,51,16.60
2016,05,29,13,52,16.70
2016,05,29,13,53,16.50
2016,05,29,13,54,16.40
2016,05,29,13,55,16.40
2016,05,29,13,56,16.40
2016,05,29,13,57,16.50
2016,05,29,13,58,16.60
2016,05,29,13,59,16.70
2016,05,29,14,00,16.80
2016,05,29,14,01,16.80
2016,05,29,14,02,16.80
2016,05,29,14,03,16.80
2016,05,29,14,04,16.80
2016,05,29,14,05,16.70
2016,05,29,14,06,16.70
2016,05,29,14,07,16.70
2016,05,29,14,08,16.70
2016,05,29,14,09,16.80
2016,05,29,14,10,16.90
2016,05,29,14,11,17.10
2016,05,29,14,12,17.10
2016,05,29,14,13,17.30
2016,05,29,14,14,17.40
2016,05,29,14,15,17.50
2016,05,29,14,16,17.60
2016,05,29,14,17,17.50
2016,05,29,14,18,17.40
2016,05,29,14,19,17.30
2016,05,29,14,20,17.10
2016,05,29,14,21,17.00
2016,05,29,14,22,17.00
2016,05,29,14,23,17.00
2016,05,29,14,24,17.00
2016,05,29,14,25,17.10
2016,05,29,14,26,17.20
2016,05,29,14,27,17.30
2016,05,29,14,28,17.40
2016,05,29,14,29,17.40
2016,05,29,14,30,17.30
2016,05,29,14,31,17.30
2016,05,29,14,32,17.20
2016,05,29,14,33,17.10
2016,05,29,14,34,17.00
2016,05,29,14,35,17.00
2016,05,29,14,36,17.20
2016,05,29,14,37,17.30
2016,05,29,14,38,17.40
2016,05,29,14,39,17.50
2016,05,29,14,40,17.50
2016,05,29,14,41,17.40
2016,05,29,14,42,17.40
2016,05,29,14,43,17.50
2016,05,29,14,44,17.50
2016,05,29,14,45,17.50
2016,05,29,14,46,17.40
2016,05,29,14,47,17.30
2016,05,29,14,48,17.30
2016,05,29,14,49,17.20
2016,05,29,14,50,17.30
2016,05,29,14,51,17.20
2016,05,29,14,52,17.30
2016,05,29,14,53,17.30
2016,05,29,14,54,17.40
2016,05,29,14,55,17.50
2016,05,29,14,56,17.60
2016,05,29,14,57,17.80
2016,05,29,14,58,17.90
2016,05,29,14,59,18.00
2016,05,29,15,00,18.10
2016,05,29,15,01,18.10
2016,05,29,15,02,18.20
2016,05,29,15,03,18.20
2016,05,29,15,04,18.20
2016,05,29,15,05,18.20
2016,05,29,15,06,18.20
2016,05,29,15,07,18.20
2016,05,29,15,08,18.20
2016,05,29,15,09,18.20
2016,05,29,15,10,18.20
2016,05,29,15,11,18.20
2016,05,29,15,12,18.20
2016,05,29,15,13,18.20
2016,05,29,15,14,18.10
2016,05,29,15,15,17.90
2016,05,29,15,16,17.80
2016,05,29,15,17,17.70
2016,05,29,15,18,17.60
2016,05,29,15,19,17.60
2016,05,29,15,20,17.60
2016,05,29,15,21,17.60
2016,05,29,15,22,17.50
2016,05,29,15,23,17.50
2016,05,29,15,24,17.60
2016,05,29,15,25,17.60
2016,05,29,15,26,17.60
2016,05,29,15,27,17.60
2016,05,29,15,28,17.70
2016,05,29,15,29,17.80
2016,05,29,15,30,17.90
2016,05,29,15,31,17.80
2016,05,29,15,32,17.60
2016,05,29,15,33,17.50
2016,05,29,15,34,17.50
2016,05,29,15,35,17.50
2016,05,29,15,36,17.50
2016,05,29,15,37,17.50
2016,05,29,15,38,17.50
2016,05,29,15,39,17.50
2016,05,29,15,40,17.50
2016,05,29,15,41,17.50
2016,05,29,15,42,17.60
2016,05,29,15,43,17.60
2016,05,29,15,44,17.60
2016,05,29,15,45,17.60
2016,05,29,15,46,17.50
2016,05,29,15,47,17.50
2016,05,29,15,48,17.50
2016,05,29,15,49,17.50
2016,05,29,15,50,17.60
2016,05,29,15,51,17.60
2016,05,29,15,52,17.50
2016,05,29,15,53,17.60
2016,05,29,15,54,17.60
2016,05,29,15,55,17.60
2016,05,29,15,56,17.50
2016,05,29,15,57,17.70
2016,05,29,15,58,17.80
2016,05,29,15,59,17.90
2016,05,29,16,00,17.90
2016,05,29,16,01,17.80
2016,05,29,16,02,17.80
2016,05,29,16,03,17.70
2016,05,29,16,04,17.60
2016,05,29,16,05,17.60
2016,05,29,16,06,17.60
2016,05,29,16,07,17.60
2016,05,29,16,08,17.60
2016,05,29,16,09,17.40
2016,05,29,16,10,17.30
2016,05,29,16,11,17.30
2016,05,29,16,12,17.30
2016,05,29,16,13,17.30
2016,05,29,16,14,17.50
2016,05,29,16,15,17.60
2016,05,29,16,16,17.60
2016,05,29,16,17,17.50
2016,05,29,16,18,17.40
2016,05,29,16,19,17.30
2016,05,29,16,20,17.30
2016,05,29,16,21,17.30
2016,05,29,16,22,17.20
2016,05,29,16,23,17.20
2016,05,29,16,24,17.20
2016,05,29,16,25,17.30
2016,05,29,16,26,17.30
2016,05,29,16,27,17.40
2016,05,29,16,28,17.30
2016,05,29,16,29,17.30
2016,05,29,16,30,17.30
2016,05,29,16,31,17.30
2016,05,29,16,32,17.30
2016,05,29,16,33,17.30
2016,05,29,16,34,17.30
2016,05,29,16,35,17.30
2016,05,29,16,36,17.20
2016,05,29,16,37,17.20
2016,05,29,16,38,17.20
2016,05,29,16,39,17.30
2016,05,29,16,40,17.20
2016,05,29,16,41,17.10
2016,05,29,16,42,17.10
2016,05,29,16,43,17.20
2016,05,29,16,44,17.20
2016,05,29,16,45,17.20
2016,05,29,16,46,17.20
2016,05,29,16,47,17.30
2016,05,29,16,48,17.20
2016,05,29,16,49,17.00
2016,05,29,16,50,17.00
2016,05,29,16,51,17.00
2016,05,29,16,52,17.20
2016,05,29,16,53,17.20
2016,05,29,16,54,17.30
2016,05,29,16,55,17.40
2016,05,29,16,56,17.40
2016,05,29,16,57,17.40
2016,05,29,16,58,17.50
2016,05,29,16,59,17.60
2016,05,29,17,00,17.60
2016,05,29,17,01,17.50
2016,05,29,17,02,17.50
2016,05,29,17,03,17.60
2016,05,29,17,04,17.60
2016,05,29,17,05,17.70
2016,05,29,17,06,17.70
2016,05,29,17,07,17.50
2016,05,29,17,08,17.30
2016,05,29,17,09,17.30
2016,05,29,17,10,17.30
2016,05,29,17,11,17.30
2016,05,29,17,12,17.30
2016,05,29,17,13,17.30
2016,05,29,17,14,17.40
2016,05,29,17,15,17.30
2016,05,29,17,16,17.30
2016,05,29,17,17,17.30
2016,05,29,17,18,17.10
2016,05,29,17,19,17.10
2016,05,29,17,20,17.10
2016,05,29,17,21,17.00
2016,05,29,17,22,17.00
2016,05,29,17,23,17.00
2016,05,29,17,24,17.00
2016,05,29,17,25,17.00
2016,05,29,17,26,16.90
2016,05,29,17,27,16.80
2016,05,29,17,28,16.80
2016,05,29,17,29,16.80
2016,05,29,17,30,16.80
2016,05,29,17,31,16.80
2016,05,29,17,32,16.70
2016,05,29,17,33,16.70
2016,05,29,17,34,16.70
2016,05,29,17,35,16.60
2016,05,29,17,36,16.60
2016,05,29,17,37,16.40
2016,05,29,17,38,16.40
2016,05,29,17,39,16.60
2016,05,29,17,40,16.60
2016,05,29,17,41,16.70
2016,05,29,17,42,16.70
2016,05,29,17,43,16.60
2016,05,29,17,44,16.60
2016,05,29,17,45,16.60
2016,05,29,17,46,16.60
2016,05,29,17,47,16.60
2016,05,29,17,48,16.60
2016,05,29,17,49,16.60
2016,05,29,17,50,16.50
2016,05,29,17,51,16.40
2016,05,29,17,52,16.40
2016,05,29,17,53,16.40
2016,05,29,17,54,16.40
2016,05,29,17,55,16.40
2016,05,29,17,56,16.30
2016,05,29,17,57,16.30
2016,05,29,17,58,16.30
2016,05,29,17,59,16.30
2016,05,29,18,00,16.30
2016,05,29,18,01,16.30
2016,05,29,18,02,16.40
2016,05,29,18,03,16.50
2016,05,29,18,04,16.60
2016,05,29,18,05,16.60
2016,05,29,18,06,16.60
2016,05,29,18,07,16.70
2016,05,29,18,08,16.70
2016,05,29,18,09,16.60
2016,05,29,18,10,16.60
2016,05,29,18,11,16.60
2016,05,29,18,12,16.60
2016,05,29,18,13,16.60
2016,05,29,18,14,16.70
2016,05,29,18,15,16.70
2016,05,29,18,16,16.60
2016,05,29,18,17,16.60
2016,05,29,18,18,16.60
2016,05,29,18,19,16.50
2016,05,29,18,20,16.50
2016,05,29,18,21,16.60
2016,05,29,18,22,16.60
2016,05,29,18,23,16.50
2016,05,29,18,24,16.40
2016,05,29,18,25,16.40
2016,05,29,18,26,16.30
2016,05,29,18,27,16.20
2016,05,29,18,28,16.10
2016,05,29,18,29,16.10
2016,05,29,18,30,16.10
2016,05,29,18,31,16.20
2016,05,29,18,32,16.30
2016,05,29,18,33,16.30
2016,05,29,18,34,16.40
2016,05,29,18,35,16.40
2016,05,29,18,36,16.40
2016,05,29,18,37,16.50
2016,05,29,18,38,16.50
2016,05,29,18,39,16.40
2016,05,29,18,40,16.40
2016,05,29,18,41,16.40
2016,05,29,18,42,16.40
2016,05,29,18,43,16.40
2016,05,29,18,44,16.40
2016,05,29,18,45,16.40
2016,05,29,18,46,16.40
2016,05,29,18,47,16.40
2016,05,29,18,48,16.40
2016,05,29,18,49,16.40
2016,05,29,18,50,16.40
2016,05,29,18,51,16.40
2016,05,29,18,52,16.40
2016,05,29,18,53,16.40
2016,05,29,18,54,16.30
2016,05,29,18,55,16.30
2016,05,29,18,56,16.20
2016,05,29,18,57,16.10
2016,05,29,18,58,16.10
2016,05,29,18,59,16.10
2016,05,29,19,00,16.10
2016,05,29,19,01,16.00
2016,05,29,19,02,15.90
2016,05,29,19,03,15.90
2016,05,29,19,04,15.90
2016,05,29,19,05,15.80
2016,05,29,19,06,15.80
2016,05,29,19,07,15.80
2016,05,29,19,08,15.80
2016,05,29,19,09,15.80
2016,05,29,19,10,15.80
2016,05,29,19,11,15.80
2016,05,29,19,12,15.80
2016,05,29,19,13,15.80
2016,05,29,19,14,15.70
2016,05,29,19,15,15.70
2016,05,29,19,16,15.60
2016,05,29,19,17,15.60
2016,05,29,19,18,15.60
2016,05,29,19,19,15.50
2016,05,29,19,20,15.50
2016,05,29,19,21,15.50
2016,05,29,19,22,15.50
2016,05,29,19,23,15.50
2016,05,29,19,24,15.50
2016,05,29,19,25,15.50
2016,05,29,19,26,15.50
2016,05,29,19,27,15.50
2016,05,29,19,28,15.60
2016,05,29,19,29,15.60
2016,05,29,19,30,15.60
2016,05,29,19,31,15.60
2016,05,29,19,32,15.50
2016,05,29,19,33,15.50
2016,05,29,19,34,15.50
2016,05,29,19,35,15.50
2016,05,29,19,36,15.50
2016,05,29,19,37,15.50
2016,05,29,19,38,15.50
2016,05,29,19,39,15.50
2016,05,29,19,40,15.50
2016,05,29,19,41,15.40
2016,05,29,19,42,15.40
2016,05,29,19,43,15.30
2016,05,29,19,44,15.30
2016,05,29,19,45,15.20
2016,05,29,19,46,15.20
2016,05,29,19,47,15.10
2016,05,29,19,48,15.10
2016,05,29,19,49,15.00
2016,05,29,19,50,15.00
2016,05,29,19,51,14.90
2016,05,29,19,52,14.80
2016,05,29,19,53,14.70
2016,05,29,19,54,14.70
2016,05,29,19,55,14.60
2016,05,29,19,56,14.50
2016,05,29,19,57,14.50
2016,05,29,19,58,14.40
2016,05,29,19,59,14.30
2016,05,29,20,00,14.30
2016,05,29,20,01,14.20
2016,05,29,20,02,14.20
2016,05,29,20,03,14.20
2016,05,29,20,04,14.10
2016,05,29,20,05,14.00
2016,05,29,20,06,14.00
2016,05,29,20,07,13.90
2016,05,29,20,08,13.90
2016,05,29,20,09,13.80
2016,05,29,20,10,13.70
2016,05,29,20,11,13.70
2016,05,29,20,12,13.70
2016,05,29,20,13,13.60
2016,05,29,20,14,13.60
2016,05,29,20,15,13.60
2016,05,29,20,16,13.50
2016,05,29,20,17,13.40
2016,05,29,20,18,13.40
2016,05,29,20,19,13.30
2016,05,29,20,20,13.30
2016,05,29,20,21,13.20
2016,05,29,20,22,13.20
2016,05,29,20,23,13.20
2016,05,29,20,24,13.10
2016,05,29,20,25,13.10
2016,05,29,20,26,13.10
2016,05,29,20,27,13.00
2016,05,29,20,28,13.00
2016,05,29,20,29,13.00
2016,05,29,20,30,12.90
2016,05,29,20,31,12.90
2016,05,29,20,32,12.90
2016,05,29,20,33,12.80
2016,05,29,20,34,12.80
2016,05,29,20,35,12.80
2016,05,29,20,36,12.80
2016,05,29,20,37,12.80
2016,05,29,20,38,12.80
2016,05,29,20,39,12.80
2016,05,29,20,40,12.80
2016,05,29,20,41,12.80
2016,05,29,20,42,12.70
2016,05,29,20,43,12.70
2016,05,29,20,44,12.70
2016,05,29,20,45,12.60
2016,05,29,20,46,12.60
2016,05,29,20,47,12.60
2016,05,29,20,48,12.50
2016,05,29,20,49,12.50
2016,05,29,20,50,12.50
2016,05,29,20,51,12.40
2016,05,29,20,52,12.40
2016,05,29,20,53,12.30
2016,05,29,20,54,12.30
2016,05,29,20,55,12.30
2016,05,29,20,56,12.30
2016,05,29,20,57,12.30
2016,05,29,20,58,12.30
2016,05,29,20,59,12.20
2016,05,29,21,00,12.20
2016,05,29,21,01,12.20
2016,05,29,21,02,12.20
2016,05,29,21,03,12.10
2016,05,29,21,04,12.10
2016,05,29,21,05,12.10
2016,05,29,21,06,12.10
2016,05,29,21,07,12.00
2016,05,29,21,08,12.00
2016,05,29,21,09,12.00
2016,05,29,21,10,12.00
2016,05,29,21,11,12.00
2016,05,29,21,12,11.90
2016,05,29,21,13,11.90
2016,05,29,21,14,11.90
2016,05,29,21,15,11.90
2016,05,29,21,16,11.80
2016,05,29,21,17,11.80
2016,05,29,21,18,11.80
2016,05,29,21,19,11.80
2016,05,29,21,20,11.80
2016,05,29,21,21,11.80
2016,05,29,21,22,11.80
2016,05,29,21,23,11.80
2016,05,29,21,24,11.70
2016,05,29,21,25,11.70
2016,05,29,21,26,11.70
2016,05,29,21,27,11.70
2016,05,29,21,28,11.70
2016,05,29,21,29,11.70
2016,05,29,21,30,11.60
2016,05,29,21,31,11.60
2016,05,29,21,32,11.60
2016,05,29,21,33,11.60
2016,05,29,21,34,11.60
2016,05,29,21,35,11.60
2016,05,29,21,36,11.60
2016,05,29,21,37,11.60
2016,05,29,21,38,11.60
2016,05,29,21,39,11.60
2016,05,29,21,40,11.60
2016,05,29,21,41,11.60
2016,05,29,21,42,11.60
2016,05,29,21,43,11.60
2016,05,29,21,44,11.60
2016,05,29,21,45,11.60
2016,05,29,21,46,11.60
2016,05,29,21,47,11.60
2016,05,29,21,48,11.60
2016,05,29,21,49,11.50
2016,05,29,21,50,11.40
2016,05,29,21,51,11.40
2016,05,29,21,52,11.40
2016,05,29,21,53,11.40
2016,05,29,21,54,11.40
2016,05,29,21,55,11.40
2016,05,29,21,56,11.40
2016,05,29,21,57,11.30
2016,05,29,21,58,11.30
2016,05,29,21,59,11.30
2016,05,29,22,00,11.20
2016,05,29,22,01,11.20
2016,05,29,22,02,11.20
2016,05,29,22,03,11.20
2016,05,29,22,04,11.10
2016,05,29,22,05,11.10
2016,05,29,22,06,11.10
2016,05,29,22,07,11.10
2016,05,29,22,08,11.10
2016,05,29,22,09,11.10
2016,05,29,22,10,11.10
2016,05,29,22,11,11.10
2016,05,29,22,12,11.10
2016,05,29,22,13,11.10
2016,05,29,22,14,11.10
2016,05,29,22,15,11.10
2016,05,29,22,16,11.10
2016,05,29,22,17,11.10
2016,05,29,22,18,11.10
2016,05,29,22,19,11.10
2016,05,29,22,20,11.10
2016,05,29,22,21,11.10
2016,05,29,22,22,11.10
2016,05,29,22,23,11.10
2016,05,29,22,24,11.10
2016,05,29,22,25,11.10
2016,05,29,22,26,11.20
2016,05,29,22,27,11.20
2016,05,29,22,28,11.20
2016,05,29,22,29,11.20
2016,05,29,22,30,11.20
2016,05,29,22,31,11.30
2016,05,29,22,32,11.30
2016,05,29,22,33,11.30
2016,05,29,22,34,11.30
2016,05,29,22,35,11.30
2016,05,29,22,36,11.30
2016,05,29,22,37,11.30
2016,05,29,22,38,11.30
2016,05,29,22,39,11.30
2016,05,29,22,40,11.30
2016,05,29,22,41,11.20
2016,05,29,22,42,11.20
2016,05,29,22,43,11.20
2016,05,29,22,44,11.20
2016,05,29,22,45,11.20
2016,05,29,22,46,11.20
2016,05,29,22,47,11.20
2016,05,29,22,48,11.20
2016,05,29,22,49,11.20
2016,05,29,22,50,11.20
2016,05,29,22,51,11.20
2016,05,29,22,52,11.10
2016,05,29,22,53,11.10
2016,05,29,22,54,11.10
2016,05,29,22,55,11.10
2016,05,29,22,56,11.10
2016,05,29,22,57,11.10
2016,05,29,22,58,11.10
2016,05,29,22,59,11.10
2016,05,29,23,00,11.10
2016,05,29,23,01,11.10
2016,05,29,23,02,11.10
2016,05,29,23,03,11.10
2016,05,29,23,04,11.10
2016,05,29,23,05,11.10
2016,05,29,23,06,11.10
2016,05,29,23,07,11.10
2016,05,29,23,08,10.90
2016,05,29,23,09,10.90
2016,05,29,23,10,10.90
2016,05,29,23,11,10.90
2016,05,29,23,12,10.90
2016,05,29,23,13,10.90
2016,05,29,23,14,10.90
2016,05,29,23,15,10.90
2016,05,29,23,16,10.90
2016,05,29,23,17,10.90
2016,05,29,23,18,10.90
2016,05,29,23,19,10.90
2016,05,29,23,20,10.90
2016,05,29,23,21,10.90
2016,05,29,23,22,10.90
2016,05,29,23,23,10.90
2016,05,29,23,24,10.90
2016,05,29,23,25,10.80
2016,05,29,23,26,10.80
2016,05,29,23,27,10.80
2016,05,29,23,28,10.80
2016,05,29,23,29,10.80
2016,05,29,23,30,10.80
2016,05,29,23,31,10.80
2016,05,29,23,32,10.80
2016,05,29,23,33,10.70
2016,05,29,23,34,10.70
2016,05,29,23,35,10.70
2016,05,29,23,36,10.60
2016,05,29,23,37,10.60
2016,05,29,23,38,10.60
2016,05,29,23,39,10.60
2016,05,29,23,40,10.60
2016,05,29,23,41,10.60
2016,05,29,23,42,10.60
2016,05,29,23,43,10.50
2016,05,29,23,44,10.40
2016,05,29,23,45,10.40
2016,05,29,23,46,10.40
2016,05,29,23,47,10.40
2016,05,29,23,48,10.40
2016,05,29,23,49,10.40
2016,05,29,23,50,10.40
2016,05,29,23,51,10.40
2016,05,29,23,52,10.40
2016,05,29,23,53,10.40
2016,05,29,23,54,10.40
2016,05,29,23,55,10.40
2016,05,29,23,56,10.40
2016,05,29,23,57,10.40
2016,05,29,23,58,10.30
2016,05,29,23,59,10.30
